This demonstration page uses our WeatherBlox Daily Observations layout. Learn more.

Left ArrowRight Arrow

38.83388, -104.82136

Hourly Observations for January 20, 2015

Temp ( °F °C ) Dew Point ( °F °C ) Humidity (%) Winds ( mph kmh ) Pressure ( in mb ) Visibility ( mi km ) Precip ( " mm )
12:56 am 00:56 Clear 33 0.4 25 -3.8 74 74 S 5 7 30.02 1017 10 16 N/A
1:56 am 01:56 Clear 31 -0.6 26 -3.4 82 82 VRB 1 2 30.03 1017 10 16 N/A
2:56 am 02:56 Clear 31 -0.6 25 -3.7 80 80 VRB 1 2 30.02 1017 10 16 N/A
3:56 am 03:56 Clear 30 -1.3 26 -3.3 86 86 N 15 24 30.04 1017 10 16 N/A
4:21 am 04:21 Mostly Cloudy 32 0 25 -4 75 75 NW 12 19 30.12 1020 10 16 N/A
4:36 am 04:36 Partly Cloudy 32 0 25 -4 75 75 NNW 14 22 30.12 1020 10 16 N/A
4:40 am 04:40 Partly Cloudy 32 0 25 -4 75 75 N 13 20 30.12 1020 10 16 N/A
4:56 am 04:56 Clear 32 0.2 25 -3.9 74 74 NNW 13 20 30.04 1017 10 16 N/A
5:56 am 05:56 Clear 32 -0.2 25 -3.8 77 77 N 14 22 30.07 1018 10 16 N/A
6:56 am 06:56 Mostly Clear 30 -1.1 24 -4.4 79 79 NNW 14 22 30.11 1020 10 16 N/A
7:46 am 07:46 Mostly Cloudy 30 -1 25 -4 80 80 NNW 10 17 30.15 1021 10 16 N/A
7:56 am 07:56 Mostly Cloudy 30 -1.3 24 -4.2 81 81 NNW 8 13 30.13 1020 10 16 N/A
8:56 am 08:56 Mostly Cloudy 30 -1.3 25 -3.7 84 84 N 6 9 30.17 1022 10 16 N/A
9:56 am 09:56 Cloudy 30 -0.9 26 -3.6 82 82 SE 7 11 30.19 1023 10 16 N/A
10:47 am 10:47 Cloudy with Light Snow 30 -1 27 -3 86 86 SSE 16 26 30.18 1022 10 16 N/A
10:56 am 10:56 Mostly Cloudy with Light Snow Showers 28 -2 28 -2.4 97 97 S 13 20 30.20 1023 4 6 N/A
11:01 am 11:01 Mostly Cloudy with Light Snow Showers 28 -2 28 -2 100 100 SSE 15 24 30.21 1023 2 2 N/A
11:31 am 11:31 Mostly Cloudy with Light Snow Showers 28 -2 28 -2 100 100 S 13 20 30.21 1023 5 8 N/A
11:40 am 11:40 Mostly Cloudy with Light Snow Showers 28 -2 28 -2 100 100 S 9 15 30.21 1023 7 11 N/A
11:55 am 11:55 Mostly Cloudy with Light Snow Showers 28 -2 28 -2 100 100 S 14 22 30.21 1023 7 11 N/A
11:56 am 11:56 Mostly Cloudy with Light Snow Showers 28 -2.4 28 -2.4 100 100 S 13 20 30.19 1022 7 11 N/A
12:02 pm 12:02 Mostly Cloudy with Light Snow 28 -2 28 -2 100 100 S 10 17 30.21 1023 4 6 N/A
12:17 pm 12:17 Mostly Cloudy with Light Snow Showers 28 -2 28 -2 100 100 S 10 17 30.18 1022 3 5 N/A
12:21 pm 12:21 Mostly Cloudy 28 -2 28 -2 100 100 S 13 20 30.18 1022 3 5 N/A
12:23 pm 12:23 Mostly Cloudy 28 -2 28 -2 100 100 S 10 17 30.18 1022 1 2 N/A
12:24 pm 12:24 Mostly Cloudy with Light Snow Showers 27 -3 28 -2 100 100 S 8 13 30.21 1023 1 2 N/A
12:56 pm 12:56 Mostly Cloudy with Light Snow Showers 28 -2.5 28 -2.4 100 100 S 9 15 30.18 1022 1 2 N/A
1:37 pm 13:37 Mostly Cloudy with Light Freezing Rain 28 -2 28 -2 100 100 S 12 19 29.88 1012 1 2 N/A
1:56 pm 13:56 Mostly Cloudy with Light Freezing Rain 28 -2.2 28 -2.1 100 100 SSE 12 19 29.85 1011 1 2 N/A
2:56 pm 14:56 Mostly Cloudy with Light Freezing Rain 28 -2.3 28 -2.1 100 100 S 10 17 29.85 1011 1 2 N/A
3:07 pm 15:07 Mostly Cloudy with Light Freezing Rain 28 -2 28 -2 100 100 SSE 12 19 29.88 1012 1 2 N/A
3:56 pm 15:56 Mostly Cloudy with Light Freezing Rain 27 -2.6 28 -2.4 100 100 SSE 9 15 29.87 1012 1 2 N/A
4:06 pm 16:06 Mostly Cloudy with Snow 27 -3 28 -2 100 100 SSE 10 17 29.94 1014 1 2 N/A
4:15 pm 16:15 Mostly Cloudy with Light Freezing Rain 27 -3 28 -2 100 100 SSE 9 15 29.94 1014 1 2 N/A
4:33 pm 16:33 Mostly Cloudy with Light Freezing Rain 28 -2 28 -2 100 100 SSE 8 13 29.91 1013 1 2 N/A
4:39 pm 16:39 Mostly Cloudy with Light Freezing Rain 28 -2 28 -2 100 100 SE 9 15 29.91 1013 1 2 N/A
4:45 pm 16:45 Mostly Cloudy with Light Freezing Rain 28 -2 28 -2 100 100 SSE 7 11 29.91 1013 1 2 N/A
4:56 pm 16:56 Mostly Cloudy with Light Freezing Rain 28 -2.4 28 -2.3 100 100 SE 8 13 29.86 1011 1 2 N/A
4:59 pm 16:59 Mostly Cloudy with Light Freezing Rain 28 -2 28 -2 100 100 SE 8 13 29.91 1013 1 2 N/A
5:12 pm 17:12 Mostly Cloudy with Light Freezing Rain 28 -2 28 -2 100 100 SE 7 11 29.91 1013 1 2 N/A
5:20 pm 17:20 Mostly Cloudy with Light Freezing Rain 28 -2 28 -2 100 100 SE 8 13 29.91 1013 1 2 N/A
5:51 pm 17:51 Mostly Cloudy with Light Freezing Rain 28 -2 28 -2 100 100 ESE 8 13 29.91 1013 1 2 N/A
5:56 pm 17:56 Mostly Cloudy with Light Freezing Rain 28 -2.3 28 -2.3 100 100 ESE 9 15 29.87 1012 1 2 N/A
6:05 pm 18:05 Mostly Cloudy with Light Freezing Rain 28 -2 28 -2 100 100 SE 6 9 29.91 1013 1 2 N/A
6:56 pm 18:56 Mostly Cloudy with Light Freezing Rain 28 -2.4 28 -2.2 100 100 SE 3 6 29.91 1013 1 2 N/A
7:06 pm 19:06 Mostly Cloudy with Freezing Fog 28 -2 28 -2 100 100 SE 6 9 29.91 1013 1 2 N/A
7:56 pm 19:56 Mostly Cloudy with Freezing Fog 28 -2.4 28 -2.3 100 100 SE 5 7 29.91 1013 1 2 0.01 0.25
8:56 pm 20:56 Mostly Cloudy with Freezing Fog 28 -2.4 28 -2.3 100 100 SSE 6 9 29.91 1013 1 2 N/A
9:22 pm 21:22 Mostly Cloudy with Light Snow 28 -2 28 -2 100 100 SSE 6 9 29.91 1013 1 2 N/A
9:35 pm 21:35 Mostly Cloudy 28 -2 28 -2 100 100 S 10 17 29.91 1013 0 0 N/A
9:36 pm 21:36 Mostly Cloudy with Light Snow Showers 28 -2 28 -2 100 100 S 10 17 29.91 1013 5 8 N/A
9:51 pm 21:51 Mostly Cloudy with Light Snow Showers 28 -2 28 -2 100 100 S 9 15 29.91 1013 10 16 N/A
9:56 pm 21:56 Mostly Cloudy with Light Snow Showers 28 -2.5 28 -2.4 100 100 S 9 15 29.89 1012 10 16 N/A
10:41 pm 22:41 Mostly Cloudy with Light Snow Showers 28 -2 28 -2 100 100 SE 8 13 29.91 1013 5 8 N/A
10:51 pm 22:51 Mostly Cloudy with Light Snow Showers 28 -2 28 -2 100 100 SSE 7 11 29.91 1013 1 2 N/A
10:54 pm 22:54 Mostly Cloudy with Freezing Fog 27 -3 28 -2 100 100 SSE 8 13 29.94 1014 1 2 N/A
10:56 pm 22:56 Mostly Cloudy with Freezing Fog 27 -2.6 28 -2.5 100 100 SSE 8 13 29.92 1013 1 2 0.00 0.00
11:02 pm 23:02 Mostly Cloudy with Light Snow Showers 28 -2 28 -2 100 100 S 8 13 29.91 1013 1 2 N/A
11:07 pm 23:07 Mostly Cloudy with Light Snow Showers 27 -3 28 -2 100 100 SSE 8 13 29.94 1014 3 5 N/A
11:13 pm 23:13 Mostly Cloudy with Light Snow Showers 27 -3 28 -2 100 100 SSE 7 11 29.94 1014 5 8 N/A
11:28 pm 23:28 Mostly Cloudy with Light Snow Showers 27 -3 28 -2 100 100 SSE 6 9 29.94 1014 2 3 N/A
11:33 pm 23:33 Mostly Cloudy with Light Snow Showers 27 -3 28 -2 100 100 SSE 8 13 29.94 1014 5 8 N/A
11:53 pm 23:53 Mostly Cloudy with Light Snow Showers 27 -3 28 -2 100 100 SE 8 13 29.94 1014 1 2 N/A
11:56 pm 23:56 Mostly Cloudy with Light Snow Showers 27 -2.6 28 -2.5 100 100 SE 8 13 29.93 1014 1 2 N/A

Powered by AerisWeather